FW4161 Weather Reports


time (UTC)temp
C
wind
direction
speed
KPH
gust
KPH
rain 1hr
cm
rain 24hr
cm
rain mn
cm
humidity
%
barometer
mb
20260504213017 23 248 4.8 19.3 0.00 0.00 0.00 34 1010.0
20260504210017 22 270 4.8 17.7 0.00 0.00 0.00 36 1010.1
20260504203017 22 248 4.8 16.1 0.00 0.00 0.00 35 1010.0
20260504200016 22 270 4.8 17.7 0.00 0.00 0.00 34 1010.2
20260504193017 22 248 6.4 19.3 0.00 0.00 0.00 33 1010.7
20260504190016 22 270 8.0 20.9 0.00 0.00 0.00 34 1010.9
20260504183016 22 270 6.4 20.9 0.00 0.00 0.00 35 1011.5
20260504180017 21 248 6.4 27.4 0.00 0.00 0.00 35 1011.9
20260504173016 20 248 8.0 20.9 0.00 0.00 0.00 38 1012.2
20260504050017 8 293 3.2 6.4 0.00 0.00 0.00 57 1014.4
20260504043017 8 293 1.6 6.4 0.00 0.00 0.00 60 1014.2
20260504040017 6 0.0 3.2 0.00 0.00 0.00 66 1013.9
20260504033015 6 0.0 0.0 0.00 0.00 0.00 65 1013.7
20260504030015 8 0.0 0.0 0.00 0.00 0.00 59 1013.7
20260504023015 10 270 1.6 4.8 0.00 0.00 0.00 52 1013.7
20260504020017 11 270 1.6 9.7 0.00 0.00 0.00 47 1013.7
20260504013017 11 0.0 4.8 0.00 0.00 0.00 46 1013.4
20260504010016 11 0.0 1.6 0.00 0.00 0.00 49 1013.0
20260504003017 12 0.0 4.8 0.00 0.00 0.00 40 1012.8
20260504000017 14 270 3.2 16.1 0.00 0.00 0.00 35 1012.4
20260503233017 15 270 4.8 20.9 0.00 0.00 0.00 33 1012.1
20260503230037 15 270 6.4 17.7 0.00 0.00 0.00 31 1012.0
20260503223017 16 270 4.8 17.7 0.00 0.00 0.00 29 1011.8
20260503220017 16 270 6.4 19.3 0.00 0.00 0.00 30 1011.9